Location: El Álamo
(40.2307°N, 3.9945°W)
Time: 04:25:19
(UTC+00:00)

NOSS 3-1 (C) - Pass Details

Date: 19 May 2025
Orbit: 625 x 1577 km, 63.4° (Epoch: 18 June)

Event Time Altitude Azimuth Distance (km) Brightness Sun altitude
Rises 20:14:16 0° 179° (S) 2,899 5.7 -8.2°
Reaches altitude 10° 20:16:46 10° 165° (SSE) 2,028 4.7 -8.6°
Maximum altitude 20:20:25 24° 111° (ESE) 1,390 3.8 -9.2°
Drops below altitude 10° 20:24:28 10° 57° (ENE) 2,279 5.3 -9.8°
Sets 20:27:26 0° 45° (NE) 3,349 6.2 -10.3°
